SCP
0 0 0 0 0 0 0 0 0 0 0 0 0 0 0 0 0 0 0 0 0 0 0 0 0 0 0 0 0 0 0 0 0 0 0 0 0 0
0 0 0 0 0 0 0 0 0 0 0 0 0 0 0 0 0 0 0 0 0 0 0 0 0 0 0 0 0 0 0 0 0 0 0 0 0 0
0 0 0 0 0 0 0 0 0 0 0 0 0 0 0 0 0 0 0 0 0 0 0 0 0 0 0 0 0 0 0 0 0 0 0 0 0 0
0 0 0 0 0 0 0 0 0 0 0 0 0 0 0 0 0 0 0 0 0 0 0 0 0 0 0 0 0 0 0 0 0 0 0 0 0 0
0 0 0 0 0 0 0 0 0 0 0 0 0 0 0 0 0 0 0 0 0 0 0 0 0 0 0 0 0 0 0 0 0 0 0 0 0 0
0 0 0 0 0 0 0 0 0 0 0 0 0 0 0 0 0 0 0 0 0 0 0 0 0 0 0 0 0 0 0 0 0 0 0 0 0 0
0 0 0 0 0 0 0 0 0 0 0 0 0 0 0 0 0 0 0 0 0 0 0 0 0 0 0 0 0 0 0 0 0 0 0 0 0 0
0 0 0 0 0 0 0 0 0 0 0 0 0 0 0 0 0 0 0 0 0 0 0 0 0 0 0 0 0 0 0 0 0 0 0 0 0 0
0 0 0 0 0 0 0 0 0 0 0 0 0 0 0 0 0 0 0 0 0 0 0 0 0 0 0 0 0 0 0 0 0 0 0 0 0 0
0 0 0 0 0 0 0 0 0 0 0 0 0 0 0 0 0 0 0 0 0 0 0 0 0 0 0 0 0 0 0 0 0 0 0 0 0 0
0 0 0 0 0 0 0 0 0 0 0 0 0 0 0 0 0 0 0 0 0 0 0 0 0 0 -0 0 0 0 0 0 0 0 0 0 0 0
0 0 0 0 0 0 0 0 0 0 0 0 0 0 0 0 0 0 0 0 0 0 0 0 0 0 0 0 0 0 0 0 0 0 0 0 0 0
0 0 0 0 0 0 0 0 0 0 0 0 0 0 0 0 0 0 0 0 0 0 0 0 0 0 0 0 0 0 0 0 0 0 0 0 0 0
0 0 0 0 0 0 0 0 0 0 0 0 0 0 0 0 0 0 0 0 0 0 0 0 0 0 0 0 0 0 0 0 0 0 0 0 0 0
0 0 0 0 0 0 0 0 0 0 0 0 0 0 0 0 0 0 0 0 0 0 0 0 0 0 0 0 0 0 0 0 0 0 0 0 0 0
0 0 0 0 0 0 0 0 0 0 0 0 0 0 0 0 0 0 0 0 0 0 0 0 0 0 0 0 0 0 0 0 0 0 0 0 0 0
0 0 0 0 0 0 0 0 0 0 0 0 0 0 0 0 0 0 0 0 0 0 0 0 0 0 0 0 0 0 0 0 0 0 0 0 0 0
0 0 0 0 0 0 0 0 0 0 0 0 0 0 0 0 0 0 0 0 0 0 0 0 0 0 0 0 0 0 0 0 0 0 0 0 0 0
0 0 0 0 0 0 0 0 0 0 0 0 0 0 0 0 0 0 0 0 0 0 0 0 0 0 0 0 0 0 0 0 0 0 0 0 0 0
0 0 0 0 0 0 0 0 0 0 0 0 0 0 0 0 0 0 0 0 0 0 0 0 0 0 0 0 0 0 0 0 0 0 0 0 0 0
0 0 0 0 0 0 0 0 0 0 0 0 0 0 0 0 0 0 0 0 0 0 0 0 0 0 0 0 0 0 0 0 0 0 0 0 0 0
0 0 0 0 0 0 0 0 0 0 0 0 0 0 0 0 0 0 0 0 0 0 0 0 0 0 0 0 0 0 0 0 0 0 0 0 0 0
0 0 0 0 0 0 0 0 0 0 0 0 0 0 0 0 0 0 0 0 0 0 0 0 0 0 0 0 0 0 0 0 0 0 0 0 0 0
Wind_Speed
2 2 2 1 2 2 3 4 4 2 1 1 1 2 1 1 2 2 2 6 7 8 7 7 7 8 8 8 9 9 9 9 9 9 10 10 11 11
2 3 2 1 2 2 2 2 3 4 2 1 1 1 1 1 2 2 2 5 6 7 7 7 7 7 8 8 8 9 9 9 9 10 10 10 10 10
2 3 2 2 2 2 2 2 3 3 3 0 1 1 1 1 2 2 2 2 2 6 6 6 6 6 6 7 7 7 8 8 8 9 9 9 9 9
2 3 2 3 3 2 2 2 2 2 3 2 0 1 0 0 1 1 2 1 1 4 4 5 5 6 6 6 6 6 7 7 7 8 8 8 8 8
3 3 3 3 3 2 2 2 1 2 2 3 1 0 1 1 1 1 2 2 2 2 3 3 4 4 5 5 5 5 5 6 6 6 7 7 8 8
2 3 3 4 4 4 3 2 2 3 3 2 1 0 1 1 1 1 2 2 2 2 2 2 3 4 4 4 4 4 4 4 4 5 6 6 7 7
2 2 2 4 6 5 4 4 4 3 2 2 1 1 1 1 1 1 0 1 2 1 2 2 2 2 3 3 3 3 3 3 3 3 4 5 5 6
2 1 1 2 4 5 6 7 7 5 4 3 1 1 2 2 1 0 0 1 2 2 1 2 1 1 2 2 3 4 4 3 3 3 4 5 5 5
3 2 2 2 3 3 4 4 3 4 6 5 4 3 3 3 2 1 1 1 2 2 1 2 2 2 2 2 3 3 3 4 4 4 4 5 5 5
3 3 3 2 3 4 4 3 1 1 2 3 3 3 3 3 3 3 3 1 1 1 1 0 2 2 2 2 4 4 3 4 4 4 5 5 5 5
2 3 3 3 4 6 5 3 1 1 1 2 2 2 1 2 3 2 2 1 1 2 0 1 1 2 2 2 3 4 4 4 5 5 5 5 5 5
1 1 3 4 5 7 5 4 3 1 1 2 2 2 1 1 2 2 2 2 1 2 1 1 1 1 2 2 2 2 3 5 5 6 6 6 5 3
2 1 1 5 6 6 5 4 4 3 2 2 1 1 2 2 1 1 1 2 2 2 1 1 0 0 1 2 2 2 1 2 2 4 5 6 6 3
3 2 2 5 5 6 4 4 4 4 2 2 1 1 1 1 1 1 0 0 1 2 1 1 1 1 1 1 2 3 2 2 1 2 3 5 5 5
2 4 4 4 3 3 3 4 4 2 2 2 1 1 1 1 0 1 2 2 2 2 1 0 1 1 1 2 2 2 2 2 2 2 2 2 2 2
2 2 3 2 2 2 2 2 1 2 2 2 1 1 0 0 0 0 0 1 1 2 2 1 0 1 1 2 2 2 2 2 3 2 2 3 2 2
4 2 2 1 1 1 1 1 1 1 1 1 1 0 0 0 0 0 0 1 0 1 2 2 2 1 2 2 1 2 2 2 3 2 2 3 3 3
6 3 2 2 2 2 2 1 1 1 1 1 1 1 1 1 1 0 0 1 1 2 2 2 1 2 2 2 3 2 2 3 3 3 2 3 4 4
4 3 3 3 3 2 2 2 2 2 1 2 2 2 1 1 1 1 1 1 2 2 2 1 0 0 1 4 4 2 2 2 2 2 3 3 4 5
2 2 3 3 2 2 2 2 2 1 1 2 2 1 2 1 1 1 2 2 2 2 2 1 1 2 3 4 3 3 3 2 2 3 3 3 4 6
3 2 2 2 2 2 2 2 2 2 2 2 2 2 2 2 2 2 2 3 2 2 3 3 4 4 2 1 2 3 3 4 4 3 3 3 4 4
3 3 2 2 2 2 2 2 2 2 2 2 2 2 2 2 3 3 2 2 3 3 3 3 2 0 1 2 4 5 4 4 5 6 5 4 2 3
3 2 2 2 2 2 2 2 2 2 2 2 2 2 2 2 2 2 2 2 2 2 2 2 1 1 2 3 4 4 5 4 3 3 4 7 9 10
Wind_Direction
121 117 109 108 116 123 133 143 141 138 333 303 324 322 339 18 23 26 21 43 43 44 48 50 52 51 49 47 44 42 42 40 43 44 43 43 43 42
114 107 99 100 102 102 120 122 128 140 158 255 258 276 322 68 60 29 27 43 44 48 52 54 55 54 53 51 48 45 43 44 45 45 45 44 42 40
92 115 121 115 106 105 110 103 102 115 132 257 328 344 48 38 13 7 11 6 19 46 53 54 53 54 51 50 50 49 47 44 43 42 42 42 40 37
121 116 123 123 113 114 113 114 122 129 134 140 2 5 10 324 19 6 7 16 2 33 45 48 49 50 51 50 48 46 44 42 40 40 39 38 35 33
143 143 149 134 131 129 130 127 124 112 112 131 144 342 344 6 29 3 11 356 1 16 25 32 35 38 44 45 42 41 41 39 40 39 37 33 30 27
141 153 159 157 165 161 148 145 126 105 104 112 113 28 338 333 54 16 358 348 343 1 12 19 23 24 27 35 36 35 35 37 37 34 31 26 23 20
126 146 162 162 164 160 153 153 138 126 119 115 115 49 347 8 288 271 295 321 325 347 352 347 357 359 349 355 8 18 24 29 32 31 23 14 8 7
148 140 136 140 147 148 150 153 152 150 154 146 153 177 237 230 221 181 121 41 324 312 41 321 3 329 319 328 5 19 23 24 25 26 17 8 5 4
156 149 130 125 131 131 129 126 140 149 156 159 164 194 203 209 178 168 166 170 231 276 87 313 335 318 309 334 352 4 12 13 12 15 10 4 1 0
152 154 147 146 149 143 128 110 99 104 167 162 176 199 200 194 182 182 181 169 307 329 109 263 310 302 318 322 343 354 352 353 352 354 352 353 353 355
151 149 155 159 160 149 133 132 110 343 16 139 155 164 132 136 140 110 95 89 336 312 347 158 294 312 322 318 332 346 347 347 346 341 341 343 344 347
138 149 157 155 154 153 150 150 159 224 116 68 53 25 16 37 112 143 158 144 170 283 291 149 290 353 324 315 330 341 343 341 340 336 336 338 343 349
162 180 171 153 148 151 153 163 182 170 137 120 84 34 24 23 17 37 152 152 164 227 258 142 182 303 233 298 318 326 334 327 333 334 335 337 343 353
174 188 175 157 152 152 157 158 147 129 111 102 91 54 17 348 340 6 78 127 163 203 228 130 157 192 205 281 296 318 328 328 332 324 323 338 340 340
166 161 158 160 158 156 152 149 141 127 121 124 169 232 243 247 336 24 30 40 27 11 25 114 156 192 179 214 261 291 306 310 315 313 314 315 309 319
155 128 125 112 111 102 110 131 143 148 157 184 207 233 268 54 41 39 51 38 32 343 344 353 261 175 203 239 235 274 285 292 310 304 298 295 295 288
136 105 92 89 95 74 72 92 129 139 169 187 179 187 144 102 294 5 106 88 123 295 319 335 340 317 238 211 238 266 280 288 290 303 310 302 287 279
134 136 158 173 186 193 192 199 186 199 203 187 187 196 208 216 240 313 117 166 241 265 280 299 339 356 351 310 222 237 267 277 292 299 292 289 292 289
140 160 177 189 196 198 198 200 208 209 184 182 203 211 215 224 223 232 228 239 252 262 271 276 259 99 306 296 292 220 239 285 301 297 279 265 275 287
154 172 191 194 193 195 200 203 206 190 180 191 203 210 208 213 226 240 232 232 245 257 274 275 236 222 232 258 276 286 259 255 264 278 282 282 280 290
186 191 192 188 188 193 198 194 190 194 196 195 209 213 210 209 230 238 234 243 238 242 252 258 257 259 252 297 295 293 287 275 272 267 275 296 305 305
187 194 197 190 187 187 183 179 185 195 199 209 223 224 221 215 228 234 236 239 240 241 251 268 293 286 210 240 266 279 290 300 302 302 288 271 270 274
192 190 190 187 190 186 180 177 182 200 206 212 220 225 218 224 233 232 231 231 238 245 255 272 289 269 257 254 265 276 287 295 300 305 294 297 294 290